Regional Weather Roundup
Issued by NWS

Home | Current Version | Previous Version | Graphics & Text | Print | Product List | Glossary On
Versions: 1 2 3 4 5 6 7 8 9 10 11 12 13 14 15 16 17 18 19 20 21 22 23 24 25 26 27 28 29 30 31 32 33 34 35 36 37 38 39 40 41 42 43 44 45 46 47 48 49 50
958
ASUS45 KPSR 272110
RWRAZ

ARIZONA HOURLY REGIONAL WEATHER ROUNDUP
NATIONAL WEATHER SERVICE PHOENIX AZ
200 PM MST MON FEB 27 2017

NOTE: FAIR INDICATES FEW OR NO CLOUDS BELOW 12,000 FEET WITH NO
SIGNIFICANT WEATHER AND/OR OBSTRUCTIONS TO VISIBILITY.

AZZ001>003-036-272200-
NORTHWEST ARIZONA

CITY           SKY/WX    TMP DP  RH WIND       PRES   REMARKS
BULLHEAD CITY  CLOUDY    52  52 100 SW5       29.86F FOG
KINGMAN        CLOUDY    48  41  76 S23       29.83F
$$

AZZ004>008-015-016-018-272200-
NORTH CENTRAL ARIZONA

CITY           SKY/WX    TMP DP  RH WIND       PRES   REMARKS
GRAND CANYON   LGT SNOW  33  33 100 SW15G26   29.84F VSB 3/4 WCI  23
WILLIAMS       MIX PCPN  36  32  87 S17       29.85S WCI  25
PRESCOTT       RAIN      42  39  89 S13G25    29.89F FOG
FLAGSTAFF      SNOW      31  30  96 SW21G29   29.87F VSB 1/2 WCI  18
PAYSON         CLOUDY    41  37  87 S7G15     29.96F
PAGE           CLOUDY    53  21  28 SW15G28   29.72F
$$

AZZ009>014-017-272200-
NORTHEAST ARIZONA

CITY           SKY/WX    TMP DP  RH WIND       PRES   REMARKS
WINSLOW        PTSUNNY   54  31  41 SW21G28   29.86F
SAINT JOHNS    MOSUNNY   56  28  34 W26G33    29.87F
WINDOW ROCK    FLURRIES  38  31  76 SW8       29.89S WCI  32
SHOW LOW       CLOUDY    41  25  52 S17G28    29.94F
$$

AZZ023-272200-
GREATER PHOENIX AREA

CITY           SKY/WX    TMP DP  RH WIND       PRES   REMARKS
PHOENIX        CLOUDY    63  40  42 VRB3      29.88F
BUCKEYE        CLOUDY    59  45  58 N6        29.90F
GLENDALE       LGT RAIN  61  43  51 NW5       29.92F
LUKE AFB       LGT RAIN  58  46  63 N6        29.89F
DEER VALLEY    LGT RAIN  58  43  57 VRB5      29.91F
SCOTTSDALE     LGT RAIN  61  38  42 W3        29.92F
MESA-FALCON    CLOUDY   N/A N/A N/A S12G17    29.86F
MESA-GATEWAY   MOSUNNY   66  37  34 S9G17     29.90F
CHANDLER       CLOUDY    66  37  34 SE9       29.89
$$

AZZ027-028-272200-
SOUTHWEST MARICOPA COUNTY AND PINAL COUNTY

CITY           SKY/WX    TMP DP  RH WIND       PRES   REMARKS
CASA GRANDE    NOT AVBL
GILA BEND      PTSUNNY   72  37  28 SE6       29.86F
$$

AZZ503-504-507>509-272200-
SOUTHEAST ARIZONA

CITY           SKY/WX    TMP DP  RH WIND       PRES   REMARKS
TUCSON         CLOUDY    69  28  21 S14       29.94F
DAVIS-MONTHAN  PTSUNNY   68  29  23 S17       29.92F
RYAN FIELD     SUNNY     68  32  26 S14G23    29.93F
NOGALES        CLOUDY    62  35  36 SW21G29   29.99F
SIERRA VISTA   CLOUDY    62  30  30 SW14G28   29.99F
DOUGLAS        PTSUNNY   66  21  18 SW23G32   29.98F
SAFFORD        MOSUNNY   66  26  22 VRB5      29.92F
$$

AZZ020-021-025-026-031-272200-
SOUTHWEST ARIZONA

CITY           SKY/WX    TMP DP  RH WIND       PRES   REMARKS
YUMA           RAIN      62  56  80 S7        29.89S
$$

CAZ031-033-041-043-047-048-061-272200-
SOUTHERN CALIFORNIA

CITY           SKY/WX    TMP DP  RH WIND       PRES   REMARKS
DOWNTOWN L.A.  CLOUDY    60  46  59 CALM      29.86F
L.A. AIRPORT   CLOUDY    57  47  69 SW7       29.87F
SAN DIEGO      LGT RAIN  58  54  86 S24G32    29.91F FOG
BURBANK        CLOUDY    56  44  64 S6        29.86F
ONTARIO        RAIN      50  48  93 S6        29.86F FOG
RIVERSIDE      LGT RAIN  51  50  96 W3        29.86F FOG
PALM SPRINGS   RAIN      52  50  93 CALM      29.89F FOG
EL CENTRO NAS  LGT RAIN  58  52  80 CALM      29.88F
IMPERIAL       LGT RAIN  60  55  83 SE6       29.86F
BLYTHE         LGT RAIN  59  57  93 S16       29.87F
NEEDLES        CLOUDY    59  47  64 S13       29.85F
$$

NVZ020-UTZ003-272200-
SOUTHERN NEVADA-UTAH

CITY           SKY/WX    TMP DP  RH WIND       PRES   REMARKS
LAS VEGAS      CLOUDY    55  33  43 SW14      29.77F
SALT LAKE CITY CLOUDY    35  28  75 NW8       29.71R WCI  29
$$

NMZ009-TXZ055-272200-
NEW MEXICO-WEST TEXAS

CITY           SKY/WX    TMP DP  RH WIND       PRES   REMARKS
ALBUQUERQUE    PTSUNNY   54  20  26 SW7       29.87F
EL PASO        MOSUNNY   68  23  18 W18       29.94F
$$


........................KEY........................
SKY/WX - SKY CONDITION/WEATHER
TMP    - TEMPERATURE IN FAHRENHEIT
DP     - DEW POINT IN FAHRENHEIT
RH     - RELATIVE HUMIDITY IN PERCENT
WIND   - DIRECTION AND SPEED IN MILES PER HOUR (MPH)
VRB    - VARIABLE WIND DIRECTION
PRES   - MEAN SEA LEVEL PRESSURE IN INCHES OF MERCURY
         F - FALLING PRESSURE   R - RISING PRESSURE
         S - STEADY PRESSURE
VSB    - VISIBILITY IN MILES
HX     - HEAT INDEX IN FAHRENHEIT
WCI    - WIND CHILL INDEX IN FAHRENHEIT
TC     - TEMPERATURE IN CELSIUS WHICH IS ALSO KNOWN AS
         TEMPERATURE IN CENTIGRADE
AFB    - AIR FORCE BASE
         LUKE AFB IS LUKE AIR FORCE BASE
         DAVIS-MONTHAN IS DAVIS-MONTHAN AIR FORCE BASE
NAS    - NAVAL AIR STATION
         EL CENTRO NAS IS EL CENTRO NAVAL AIR STATION
N/A    - NOT AVAILABLE





USA.gov is the U.S. government's official web portal to all federal, state and local government web resources and services.